Find Starlink 11562

NORAD ID: 62918 Int'l Des: 2025-027 Owner: SPXS Country: US Constellation: starlink operational
LEOCIRCULAR

实时位置

正在加载3D地球...

关于 Starlink 11562

正在加载描述...

即将过境

Passes for default location (London). Set your location on the main map for personalized predictions.

高度历史

Loading altitude history...

两行轨道根数

1 62918U 25027M 26124.38490110 .00220717 00000-0 16756-2 0 9999
2 62918 43.0004 11.7602 0000769 359.3560 0.7307 15.70878868 71956
Epoch: May 4, 2026 • Age: 30 hours

当前状态

高度 367.7 km
速度 7.69 km/s
星下点 -41.73°S, 162.99°E
发射日期 Feb 8, 2025
运行时间 1.2 years
类型 internet

技术详情

分类 Payload
质量 960.00 kg
干质量 910.00 kg
总质量 960.00 kg
长度 0.30 m
直径 4.10 m
跨度 29.00 m
形状 Box + pan
制造商 SPXS
平台类型 Starlink V2MD
阶段状态 In Orbit
所有者/国家 SPXS/US

Most Searched